Weather History for Crestview, FL

Change the Weather History Date:

Friday, September 13, 2013

  Actual Average Record
Temperature  
Mean Temperature 80 °F -  
Max Temperature 95 °F 91 °F 97 °F (1991)
Min Temperature 66 °F 69 °F 60 °F (1999)
Cooling Degree Days 14    
Growing Degree Days 30 (Base 50)    
Moisture  
Dew Point 68 °F    
Average Humidity 70    
Maximum Humidity 93    
Minimum Humidity 37    
Precipitation  
Precipitation 0.00 in - - ()
Sea Level Pressure  
Sea Level Pressure 29.89 in    
Wind  
Wind Speed 2 mph (WNW)    
Max Wind Speed 7 mph    
Max Gust Speed -    
Visibility 8 miles    
Events      
Averages and records for this station are not official NWS values.
T = Trace of Precipitation, MM = Missing Value Source: NWS Daily Summary

Daily Weather History Graph

Daily Weather History Graph

Search for Another Location

Airport:

Trip Planner

Search our weather history database for the weather conditions in past years. The results will help you decide how hot, cold, wet, or windy it might be!

Date:

Astronomy

Sep. 13, 2013 Rise Set
Actual Time 6:29 AM CDT 6:53 PM CDT
Civil Twilight 6:05 AM CDT 7:18 PM CDT
Nautical Twilight 5:36 AM CDT 7:46 PM CDT
Astronomical Twilight 5:08 AM CDT 8:15 PM CDT
Moon 2:26 PM CDT (9/13) 12:15 AM CDT (9/13)
Length of Visible Light 13h 12m
Length of Day
12h 24m
First Quarter, 61% of the Moon is Illuminated
Sep 13
First Quarter
Sep 19
Full
Sep 26
Last Quarter
Oct 4
New
Oct 11
First Quarter

Hourly Weather History & Observations

Time (CDT) Temp. Heat Index Dew Point Humidity Pressure Visibility Wind Dir Wind Speed Gust Speed Precip Events Conditions
12:53 AM 71.1 °F - 69.1 °F 93% 29.94 in 6.0 mi Calm Calm - N/A   Clear
1:53 AM 71.1 °F - 68.0 °F 90% 29.93 in 6.0 mi Calm Calm - N/A   Clear
2:53 AM 69.1 °F - 66.9 °F 93% 29.91 in 6.0 mi Calm Calm - N/A   Clear
3:53 AM 69.1 °F - 66.9 °F 93% 29.91 in 6.0 mi Calm Calm - N/A   Clear
4:53 AM 68.0 °F - 66.0 °F 93% 29.91 in 5.0 mi Calm Calm - N/A   Clear
5:53 AM 66.9 °F - 64.9 °F 93% 29.91 in 6.0 mi Calm Calm - N/A   Clear
6:53 AM 66.9 °F - 64.9 °F 93% 29.92 in 6.0 mi Calm Calm - N/A   Clear
7:53 AM 77.0 °F - 72.0 °F 84% 29.93 in 8.0 mi NNW 6.9 mph - N/A   Clear
8:53 AM 81.0 °F 84.9 °F 71.1 °F 72% 29.93 in 10.0 mi NW 6.9 mph - N/A   Clear
9:53 AM 86.0 °F 90.7 °F 70.0 °F 59% 29.94 in 10.0 mi NNW 4.6 mph - N/A   Clear
10:53 AM 88.0 °F 90.3 °F 66.0 °F 48% 29.93 in 10.0 mi WNW 5.8 mph - N/A   Clear
11:53 AM 88.0 °F 89.6 °F 64.9 °F 46% 29.92 in 10.0 mi NW 5.8 mph - N/A   Mostly Cloudy
12:53 PM 91.0 °F 92.6 °F 64.0 °F 41% 29.90 in 10.0 mi Calm Calm - N/A   Partly Cloudy
1:53 PM 90.0 °F 90.6 °F 63.0 °F 40% 29.87 in 10.0 mi WNW 4.6 mph - N/A   Partly Cloudy
2:53 PM 93.0 °F 94.2 °F 63.0 °F 37% 29.85 in 10.0 mi West 4.6 mph - N/A   Partly Cloudy
3:53 PM 93.9 °F 96.1 °F 64.9 °F 38% 29.83 in 10.0 mi North 5.8 mph - N/A   Partly Cloudy
4:53 PM 91.9 °F 92.9 °F 63.0 °F 38% 29.82 in 10.0 mi West 4.6 mph - N/A   Clear
5:53 PM 91.0 °F 93.0 °F 64.9 °F 42% 29.82 in 10.0 mi Calm Calm - N/A   Clear
6:53 PM 82.9 °F 87.0 °F 70.0 °F 65% 29.84 in 8.0 mi SSW 3.5 mph - N/A   Clear
7:53 PM 82.0 °F 86.7 °F 72.0 °F 71% 29.85 in 9.0 mi SSW 3.5 mph - N/A   Clear
8:53 PM 77.0 °F - 72.0 °F 84% 29.87 in 7.0 mi Calm Calm - N/A   Clear
9:53 PM 75.9 °F - 71.1 °F 85% 29.88 in 7.0 mi Calm Calm - N/A   Clear
10:53 PM 75.0 °F - 71.1 °F 87% 29.88 in 5.0 mi Calm Calm - N/A   Clear
11:53 PM 73.9 °F - 71.1 °F 91% 29.87 in 5.0 mi Calm Calm - N/A   Scattered Clouds